Weather History for Perryton, TX

Change the Weather History Date:

Tuesday, February 25, 2014

  Actual Average Record
Temperature  
Mean Temperature 26 °F -  
Max Temperature 35 °F 54 °F 78 °F (1976)
Min Temperature 18 °F 24 °F 0 °F (1971)
Degree Days  
Heating Degree Days 38    
Moisture  
Dew Point 17 °F    
Average Humidity 68    
Maximum Humidity 89    
Minimum Humidity 48    
Precipitation  
Precipitation 0.00 in - - ()
Sea Level Pressure  
Sea Level Pressure 30.21 in    
Wind  
Wind Speed 13 mph (NNE)    
Max Wind Speed 25 mph    
Max Gust Speed 30 mph    
Visibility 10 miles    
Events      
Averages and records for this station are not official NWS values.
T = Trace of Precipitation, MM = Missing Value Source: NWS Daily Summary

Daily Weather History Graph

Daily Weather History Graph

Search for Another Location

Airport:

Trip Planner

Search our weather history database for the weather conditions in past years. The results will help you decide how hot, cold, wet, or windy it might be!

Date:

Astronomy

Feb. 25, 2014 Rise Set
Actual Time 7:18 AM CST 6:33 PM CST
Civil Twilight 6:52 AM CST 6:59 PM CST
Nautical Twilight 6:22 AM CST 7:29 PM CST
Astronomical Twilight 5:52 AM CST 7:59 PM CST
Moon 4:10 AM CST 2:46 PM CST
Length of Visible Light 12h 07m
Length of Day
11h 15m
Waning Crescent, 18% of the Moon is Illuminated
Feb 25
Waning Crescent
Mar 1
New
Mar 8
First Quarter
Mar 16
Full
Mar 23
Last Quarter

Hourly Weather History & Observations

Time (CST) Temp. Windchill Dew Point Humidity Pressure Visibility Wind Dir Wind Speed Gust Speed Precip Events Conditions
12:15 AM 33.3 °F 22.8 °F 26.8 °F 77% 30.15 in 10.0 mi NNE 16.1 mph - N/A   Clear
12:35 AM 32.9 °F 22.0 °F 27.1 °F 79% 30.16 in 10.0 mi NE 17.3 mph - N/A   Clear
1:00 AM 32.2 °F 23.2 °F 27.1 °F 82% 30.17 in 10.0 mi NNE 11.5 mph - N/A   Clear
1:15 AM 31.1 °F 20.9 °F 26.4 °F 83% 30.18 in 10.0 mi North 13.8 mph - N/A   Clear
1:35 AM 31.5 °F 20.5 °F 25.5 °F 79% 30.19 in 10.0 mi NNE 16.1 mph - N/A   Clear
1:55 AM 30.0 °F 20.0 °F 23.0 °F 75% 30.19 in 10.0 mi North 12.7 mph - N/A   Clear
2:15 AM 28.4 °F 17.5 °F 22.3 °F 78% 30.20 in 10.0 mi North 13.8 mph 18.4 mph N/A   Scattered Clouds
3:55 AM 24.8 °F 12.4 °F 18.5 °F 77% 30.19 in 10.0 mi North 15.0 mph - N/A   Scattered Clouds
4:15 AM 24.1 °F 12.5 °F 18.3 °F 79% 30.20 in 10.0 mi North 12.7 mph 18.4 mph N/A   Scattered Clouds
4:35 AM 23.9 °F 12.9 °F 18.1 °F 79% 30.20 in 10.0 mi NNE 11.5 mph - N/A   Clear
4:55 AM 23.2 °F 12.6 °F 18.0 °F 80% 30.20 in 10.0 mi NNE 10.4 mph - N/A   Clear
5:15 AM 23.0 °F 11.1 °F 18.0 °F 81% 30.21 in 10.0 mi North 12.7 mph - N/A   Clear
5:35 AM 22.8 °F 10.9 °F 18.1 °F 82% 30.21 in 10.0 mi NNE 12.7 mph 18.4 mph N/A   Clear
5:55 AM 22.1 °F 11.3 °F 17.8 °F 83% 30.22 in 10.0 mi North 10.4 mph - N/A   Clear
6:15 AM 21.2 °F 9.5 °F 17.8 °F 87% 30.22 in 10.0 mi North 11.5 mph - N/A   Clear
6:35 AM 21.4 °F 10.4 °F 18.1 °F 87% 30.23 in 10.0 mi North 10.4 mph - N/A   Clear
6:55 AM 21.0 °F 11.4 °F 18.1 °F 89% 30.24 in 10.0 mi North 8.1 mph - N/A   Scattered Clouds
7:15 AM 21.2 °F 13.6 °F 18.5 °F 89% 30.24 in 10.0 mi North 5.8 mph - N/A   Mostly Cloudy
7:35 AM 21.4 °F 11.1 °F 18.7 °F 89% 30.23 in 10.0 mi NNE 9.2 mph - N/A   Overcast
8:00 AM 21.2 °F 8.3 °F 17.4 °F 85% 30.23 in 10.0 mi North 13.8 mph - N/A   Overcast
8:15 AM 21.7 °F 10.2 °F 17.4 °F 83% 30.24 in 10.0 mi NNE 11.5 mph - N/A   Overcast
8:35 AM 21.9 °F 10.4 °F 17.2 °F 82% 30.24 in 10.0 mi NNE 11.5 mph - N/A   Overcast
8:55 AM 22.3 °F 11.5 °F 16.7 °F 79% 30.24 in 10.0 mi North 10.4 mph - N/A   Overcast
9:15 AM 22.8 °F 13.6 °F 16.7 °F 77% 30.24 in 10.0 mi NNE 8.1 mph - N/A   Overcast
9:35 AM 23.9 °F 14.2 °F 17.4 °F 76% 30.23 in 10.0 mi NNE 9.2 mph - N/A   Mostly Cloudy
9:55 AM 23.9 °F 13.5 °F 16.7 °F 74% 30.23 in 10.0 mi North 10.4 mph - N/A   Mostly Cloudy
10:15 AM 24.6 °F 15.8 °F 16.5 °F 71% 30.22 in 10.0 mi NNE 8.1 mph - N/A   Overcast
10:40 AM 25.9 °F 16.0 °F 16.0 °F 66% 30.22 in 10.0 mi NNE 10.4 mph - N/A   Overcast
10:50 AM 25.7 °F 18.0 °F 15.6 °F 66% 30.22 in 10.0 mi NNE 6.9 mph - N/A   Overcast
11:20 AM 27.7 °F 19.6 °F 16.3 °F 62% 30.21 in 10.0 mi NNE 8.1 mph - N/A   Overcast
11:35 AM 27.3 °F 18.4 °F 15.8 °F 62% 30.21 in 10.0 mi NE 9.2 mph - N/A   Overcast
11:55 AM 28.2 °F 21.0 °F 15.8 °F 60% 30.20 in 10.0 mi NE 6.9 mph - N/A   Overcast
12:15 PM 29.3 °F 23.2 °F 16.3 °F 58% 30.19 in 10.0 mi NNE 5.8 mph - N/A   Overcast
12:35 PM 30.0 °F 24.1 °F 16.3 °F 57% 30.19 in 10.0 mi NNE 5.8 mph - N/A   Overcast
12:55 PM 31.3 °F 25.6 °F 17.1 °F 56% 30.17 in 10.0 mi NE 5.8 mph - N/A   Overcast
1:15 PM 31.6 °F 26.0 °F 17.2 °F 55% 30.16 in 10.0 mi NE 5.8 mph - N/A   Overcast
1:35 PM 32.0 °F 24.2 °F 17.8 °F 56% 30.14 in 10.0 mi ENE 9.2 mph - N/A   Overcast
1:55 PM 32.2 °F 25.8 °F 17.2 °F 54% 30.12 in 10.0 mi ENE 6.9 mph - N/A   Overcast
2:15 PM 33.1 °F 27.7 °F 17.8 °F 53% 30.12 in 10.0 mi East 5.8 mph - N/A   Overcast
2:35 PM 33.4 °F 27.3 °F 18.1 °F 54% 30.11 in 10.0 mi ENE 6.9 mph - N/A   Overcast
2:55 PM 33.8 °F 27.0 °F 17.6 °F 52% 30.10 in 10.0 mi ENE 8.1 mph - N/A   Overcast
3:15 PM 34.5 °F 27.3 °F 17.6 °F 50% 30.10 in 10.0 mi East 9.2 mph 16.1 mph N/A   Overcast
3:35 PM 35.1 °F 27.9 °F 17.6 °F 49% 30.10 in 10.0 mi East 9.2 mph - N/A   Overcast
3:55 PM 35.2 °F 28.8 °F 17.8 °F 49% 30.10 in 10.0 mi East 8.1 mph - N/A   Overcast
4:15 PM 35.6 °F 28.6 °F 17.6 °F 48% 30.10 in 10.0 mi East 9.2 mph - N/A   Overcast
4:35 PM 34.7 °F 25.9 °F 16.9 °F 48% 30.10 in 10.0 mi East 12.7 mph 18.4 mph N/A   Overcast
4:55 PM 33.6 °F 22.9 °F 16.3 °F 49% 30.10 in 10.0 mi ENE 17.3 mph 20.7 mph N/A   Overcast
5:15 PM 32.9 °F 23.2 °F 16.0 °F 50% 30.11 in 10.0 mi ENE 13.8 mph - N/A   Overcast
5:35 PM 32.4 °F 21.7 °F 15.8 °F 51% 30.12 in 10.0 mi NE 16.1 mph 20.7 mph N/A   Overcast
5:55 PM 32.0 °F 20.8 °F 15.6 °F 51% 30.13 in 10.0 mi NE 17.3 mph - N/A   Overcast
6:15 PM 31.5 °F 19.8 °F 15.3 °F 51% 30.14 in 10.0 mi NE 18.4 mph - N/A   Overcast
6:35 PM 30.9 °F 18.7 °F 14.9 °F 52% 30.16 in 10.0 mi NE 19.6 mph - N/A   Overcast
6:55 PM 30.2 °F 17.4 °F 14.9 °F 53% 30.17 in 10.0 mi NE 20.7 mph 24.2 mph N/A   Overcast
7:15 PM 29.1 °F 15.7 °F 14.4 °F 54% 30.19 in 10.0 mi NNE 21.9 mph 26.5 mph N/A   Overcast
7:35 PM 28.4 °F 15.1 °F 14.5 °F 56% 30.21 in 10.0 mi NE 20.7 mph 28.8 mph N/A   Overcast
7:55 PM 26.2 °F 11.5 °F 14.0 °F 60% 30.23 in 10.0 mi NNE 23.0 mph 28.8 mph N/A   Overcast
8:15 PM 24.1 °F 9.4 °F 13.8 °F 65% 30.25 in 10.0 mi NNE 20.7 mph 27.6 mph N/A   Overcast
8:35 PM 22.8 °F 6.3 °F 14.4 °F 70% 30.28 in 10.0 mi NE 25.3 mph 29.9 mph N/A   Overcast
8:55 PM 22.6 °F 7.1 °F 14.2 °F 70% 30.30 in 10.0 mi NNE 21.9 mph 27.6 mph N/A   Overcast
9:15 PM 21.7 °F 7.1 °F 14.7 °F 74% 30.33 in 10.0 mi NNE 18.4 mph - N/A   Overcast
9:35 PM 21.2 °F 7.3 °F 14.7 °F 76% 30.34 in 10.0 mi NNE 16.1 mph 27.6 mph N/A   Overcast
9:55 PM 20.8 °F 4.4 °F 14.4 °F 76% 30.35 in 10.0 mi NNE 23.0 mph 26.5 mph N/A   Overcast
10:15 PM 20.3 °F 4.4 °F 13.8 °F 76% 30.36 in 10.0 mi NNE 20.7 mph 27.6 mph N/A   Overcast
10:35 PM 20.3 °F 3.7 °F 12.4 °F 71% 30.36 in 10.0 mi NNE 23.0 mph 28.8 mph N/A   Overcast
10:55 PM 20.3 °F 3.0 °F 11.3 °F 68% 30.38 in 10.0 mi North 25.3 mph 29.9 mph N/A   Overcast
11:15 PM 19.0 °F 2.7 °F 10.2 °F 69% 30.38 in 10.0 mi NNE 20.7 mph 29.9 mph N/A   Overcast
11:35 PM 18.9 °F 2.1 °F 9.9 °F 68% 30.39 in 10.0 mi North 21.9 mph 28.8 mph N/A   Overcast
11:55 PM 18.3 °F 2.2 °F 9.0 °F 67% 30.39 in 10.0 mi North 19.6 mph 27.6 mph N/A   Overcast